Location: Unspecified
(0.0000°N, 0.0000°E)
Time: 16:53:11
(UTC+00:00)

deb Explorer IX - Pass Details

Date: 21 December 2018
Orbit: 536 x 1116 km, 38.8° (Epoch: 21 March)

Event Time Altitude Azimuth Distance (km) Brightness Sun altitude
Rises 01:07:06 0° 293° (WNW) 2,900 - -61.2°
Reaches altitude 10° 01:09:27 10° 283° (WNW) 2,071 - -60.8°
Maximum altitude 01:13:49 34° 218° (SW) 1,189 - -60.2°
Drops below altitude 10° 01:18:55 10° 154° (SSE) 2,420 - -59.4°
Sets 01:21:53 0° 145° (SE) 3,466 - -58.9°
